Regional Weather Roundup
Issued by NWS

Home | Current Version | Previous Version | Text Only | Print | Product List | Glossary On
Versions: 1 2 3 4 5 6 7 8 9 10 11 12 13 14 15 16 17 18 19 20 21 22 23 24 25 26 27 28 29 30 31 32 33 34 35 36 37 38 39 40 41 42 43 44 45 46 47 48 49 50
000
ASHW40 PHFO 240343
RWRHI

WEATHER ROUNDUP FOR HAWAII
NATIONAL WEATHER SERVICE HONOLULU HI
500 PM HST MON JAN 23 2017

THIS IS AN AUTOMATED REPORT THAT HAS NOT BEEN QUALITY CONTROLLED.

NOTE..."FAIR" INDICATES FEW OR NO CLOUDS BELOW 12,000 FEET WITH NO
SIGNIFICANT WEATHER AND/OR OBSTRUCTIONS TO VISIBILITY.

* - THESE SITES REPORT LIMITED FIELDS

HIZ001>004-240400-
KAUAI-NIIHAU-

CITY           SKY/WX    TMP DP  RH WIND       PRES   REMARKS
LIHUE APT      CLOUDY    75  66  73 E16       30.13S
PORT ALLEN*      N/A     79 N/A N/A NE17G23     N/A
POIPU*           N/A     77 N/A N/A NE8G17      N/A
PRINCEVILLE*     N/A     73 N/A N/A SE7G13      N/A
KOKOLE POINT*  NOT AVBL
MOLOAA DAIRY*    N/A     73  66  78 E5G12       N/A
WAIMEA HTS*      N/A     77  63  61 W5G13       N/A
PUU OPAE*      NOT AVBL
PUU LUA*       NOT AVBL
MAKAHA RIDGE*    N/A     75  59  57 NW1G7       N/A
$$

HIZ005>011-240400-
OAHU-

CITY           SKY/WX    TMP DP  RH WIND       PRES   REMARKS
HONOLULU       PTSUNNY   78  65  63 E12       30.10R
KALAELOA       CLOUDY    79  67  66 VRB6      30.11R
KANEOHE MCB    NOT AVBL
WHEELER FIELD  PTSUNNY   73  66  77 E8        30.10S
BELLOWS*         N/A    N/A N/A N/A E21G26      N/A
KAHUKU*          N/A    N/A N/A N/A NE10G20     N/A
WHEELER*         N/A    N/A N/A N/A E5G10       N/A
WAIANAE HARBOR   N/A    N/A N/A N/A W7          N/A
DILLINGHAM*      N/A     79  63  57 MISG        N/A
KAHUKU TRN*      N/A     75  70  83 W6G18       N/A
KAWAILOA*        N/A     72  64  78 E10G24      N/A
KII*             N/A     73  68  83 E16G23      N/A
MAKUA RANGE*     N/A     82  70  65 NE3         N/A
OAHU FOREST NW   N/A     66  64  94 E15G35      N/A
SCHOFIELD BRK*   N/A     72  64  78 MISG        N/A
SCHOFIELD S*   NOT AVBL
WAIANAE VLY*     N/A     73  64  73 NE3G14      N/A
KUAOKALA*        N/A     72   5   7 NE6G24      N/A
HONOULIUULI*   NOT AVBL
MOKUOLOE IS*   NOT AVBL
PALEHUA*         N/A     64  64 100 E2G12       N/A
WAIAWA PHB*    NOT AVBL
$$

HIZ012>013-240400-
MOLOKAI-

CITY           SKY/WX    TMP DP  RH WIND       PRES   REMARKS
MOLOKAI AIRPT  SUNNY     78  65  63 N8        30.10S
KALAUPAPA      NOT AVBL
MAKAPULAPAI*     N/A     75  68  78 E18G29      N/A
MOLOKAI 1*       N/A     66  57  72 E2G10       N/A
PUU ALII*        N/A     59  59 100 E2G10       N/A
$$

HIZ016-240400-
KAHOOLAWE-

CITY           SKY/WX    TMP DP  RH WIND       PRES   REMARKS
KAHOOLAWE*     NOT AVBL
HAKIOAWA*        N/A     72  65  78 MISG      30.53R
HONOKANAIA*      N/A     79  65  62 NE16G32   30.03F
KANELOA*         N/A     73  66  78 E22G38    30.17R
KEALIALALO*    NOT AVBL
LUA MAKIKA*    NOT AVBL
$$

HIZ014>015-240400-
LANAI-

CITY           SKY/WX    TMP DP  RH WIND       PRES   REMARKS
LANAI CITY     NOT AVBL
LANAI 1*         N/A     70  64  83 NE15G24     N/A
$$

HIZ017>028-240400-
MAUI-

CITY           SKY/WX    TMP DP  RH WIND       PRES   REMARKS
KAHULUI        MOSUNNY   77  66  68 NE15G24   30.09S
KAPALUA-W MAUI MOSUNNY   75  64  69 E14G25    30.11
HANA AIRPORT   CLOUDY    72  68  88 E5G21     30.17R
HANA*            N/A     73 N/A N/A E8G14       N/A
HALEAKALA SUMM   N/A     46  23  39 N7          N/A
MAALAEA BAY*     N/A     75 N/A N/A N17G23      N/A
HALEAKALA*     NOT AVBL
KAUPO GAP*       N/A     72  72 100 E7G18       N/A
KULA 1*          N/A     59  53  79 N2G8        N/A
$$

HIZ023>026-240400-
BIG ISLAND OF HAWAII COAST AND LOWER SLOPES-

CITY           SKY/WX    TMP DP  RH WIND       PRES   REMARKS
KAILUA KONA    SUNNY     79  68  69 SW8       30.07R
HILO           LGT RAIN  73  68  83 E6        30.13R
HONOKAA*         N/A     68 N/A N/A VRB1        N/A
KAWAIHAE MWT*  NOT AVBL
KAWAIHAE*        N/A     77 N/A N/A W3        30.09S
SOUTH POINT*     N/A     72 N/A N/A N17G26      N/A
UPOLU AIRPORT* NOT AVBL
KAMUELA*       CLOUDY    66  63  88 NE10      30.20R
HAKALAU*         N/A     54  54  99 S2G10       N/A
KALOKO-HONOKO*   N/A     81  66  61 SW5       30.07R
PALI 2*          N/A     66  63  88 SW10G16     N/A
KEALAKOMO*       N/A     75  66  73 NE17        N/A
KAUPULEHU*       N/A     73  64  73 NW5G12      N/A
KAPAPALA*      NOT AVBL
LOWER KAHUKU*    N/A     61  59  94 NE3G12      N/A
PUHE CS*         N/A     79  63  57 W3          N/A
PUHO CS*         N/A     82  63  52 W3          N/A
PTA KEAMUKU*     N/A     66  59  77 CALM        N/A
WAIKOLOA*        N/A     75  64  69 NW3G10      N/A
$$

HIZ027>028-240400-
BIG ISLAND OF HAWAII INTERIOR AND SUMMMITS-

CITY           SKY/WX    TMP DP  RH WIND       PRES   REMARKS
BRADSHAW FIELD PTSUNNY   58  51  76 S9G17     30.39R
MK VISITOR CEN   N/A     46  43  87 SE7         N/A
MAUNA KEA*       N/A     32  25  74 CALM        N/A
MAUNA LOA*       N/A     39  34  81 MISG        N/A
MAUNA LOA 1*   NOT AVBL
PTA KIPUKA*      N/A     68  55  64 N6G12       N/A
PTA RANGE 17*    N/A     59  52  77 NW9G16      N/A
PTA WEST*        N/A     64  57  77 NW8G14      N/A
NENE CABIN*      N/A     54  54 100 E6G14       N/A
AHUMOA*          N/A     55  52  89 N3G12       N/A
PTA PORTABLE*  NOT AVBL
PUU MALI*        N/A     54 N/A N/A SW5         N/A
$$

HIC003-240400-
NORTHWEST ISLANDS-

CITY           SKY/WX    TMP DP  RH WIND       PRES   REMARKS
MIDWAY ISLAND  CLOUDY    70  66  88 E6        30.13R
MIDWAY NOS*      N/A     70 N/A N/A MISG      30.11S
FRENCH FRIGATE NOT AVBL
$$

PHZ110>124-180-240400-
BUOY REPORTS

STATION/POSITION TIME  TEMP    WIND        PRES    WAVE   SWELL
                       AIR SEA DIR/SP/G            HT/PER HT/DIR
                 (UTC) (F)     (DEG/KT/KT) (MB)    (FT/S) (FT/D)
BUOY 51001       0320   73 74   90/ 12/ 16 1021.0
BUOY 51101       0250   74 75   70/ 14/ 17 1021.6R   9/ 9   8/100
BUOY 51100       NOT AVBL
BUOY 51002       0320   76 77   60/ 19/ 23 1017.0
BUOY 51003       0250   76 78   50/ 16/ 17 1018.1R   9/10   8/ 70
BUOY 51004       0250      77   70/ 19/ 23 1017.4R  13/11  10/ 60
BARBERS PT BUOY  NOT AVBL
WAIMEA BAY BUOY  0302      74                N/A     7/11   3
KAILUA BAY BUOY  0304      76                N/A    10/10   5/ 20
LANAI BUOY       0315      78                N/A     2/11   2/300
BARBERS PT 2     0309      77                N/A     4/ 7   2/180
PAUWELA MAUI     0309      75                N/A     9/ 9   3/ 70
HILO             0312      76                N/A    11/10   7/ 70
KANEOHE BAY BUOY 0306      75                N/A     9/10   3/ 20
HANALEI KAUAI    0322      77                N/A     9/10   3/ 50
KAHULUI HARBOR   0318   73 74   60/ 18/ 26 1019.0
HONOLULU HARBOR  0318   76 76   90/  5/  9 1020.0
KILO NALU        NOT AVBL
HILO HARBOR      0318   73 74  120/  5/  7 1019.9
MOKUOLOE         0236   74 74   90/ 15/ 20 1019.7R
NAWILIWILI       0318   73      60/ 11/ 14 1020.0
WHOTS BUOY       NOT AVBL
BUOY 51028       NOT AVBL
$$

......................KEY........................................
  SKY/WX - SKY CONDITIONS/PRESENT WEATHER
  TMP    - TEMPERATURE IN FAHRENHEIT
  DWPT   - DEWPOINT IN FAHRENHEIT
  RH     - RELATIVE HUMIDITY IN PERCENT
  WIND   - DIRECTION AND SPEED /MPH FOR ISLANDS...KTS FOR BUOYS/
  PRES   - MEAN SEA LEVEL PRESSURE IN INCHES OF HG
  VSB    - VISIBILITY IN MILES
  HX     - HEAT INDEX
  WCI    - WIND CHILL INDEX
  VRB    - VARIABLE WIND DIRECTION
  N/A    - NOT AVAILABLE



USA.gov is the U.S. government's official web portal to all federal, state and local government web resources and services.